Time,TemperatureF,DewpointF,PressureIn,WindDirection,WindDirectionDegrees,WindSpeedMPH,WindSpeedGustMPH,Humidity,HourlyPrecipIn,Conditions,Clouds,dailyrainin,SoftwareType,DateUTC
2013-02-10 00:11:00,18.5,18.0,29.30,WNW,292,3.7,-999.0,98,-99.99,,,0.00,Acu-Link.com,2013-02-10 07:11:00,
2013-02-10 00:27:00,18.3,17.8,29.31,SSW,202,4.7,-999.0,98,-99.99,,,0.00,Acu-Link.com,2013-02-10 07:27:00,
2013-02-10 00:42:00,18.1,17.6,29.33,SSW,202,4.2,-999.0,98,-99.99,,,0.00,Acu-Link.com,2013-02-10 07:42:00,
2013-02-10 00:57:00,18.0,17.5,29.31,SW,225,2.7,-999.0,98,-99.99,,,0.00,Acu-Link.com,2013-02-10 07:57:00,
2013-02-10 01:12:00,18.5,18.0,29.31,West,270,2.2,-999.0,98,-99.99,,,0.00,Acu-Link.com,2013-02-10 08:12:00,
2013-02-10 01:28:00,17.8,17.3,29.32,SW,225,0.0,-999.0,98,-99.99,,,0.00,Acu-Link.com,2013-02-10 08:28:00,
2013-02-10 01:43:00,16.7,16.2,29.33,NNW,337,0.0,-999.0,98,-99.99,,,0.00,Acu-Link.com,2013-02-10 08:43:00,
2013-02-10 01:58:00,15.6,15.1,29.34,NNE,22,0.0,-999.0,98,-99.99,,,0.00,Acu-Link.com,2013-02-10 08:58:00,
2013-02-10 02:19:00,15.6,15.1,29.34,NW,315,0.0,-999.0,98,-99.99,,,0.00,Acu-Link.com,2013-02-10 09:19:00,
2013-02-10 02:35:00,13.3,12.8,29.33,NNE,22,2.2,-999.0,98,-99.99,,,0.00,Acu-Link.com,2013-02-10 09:35:00,
2013-02-10 02:50:00,12.0,11.5,29.34,NNW,337,0.0,-999.0,98,-99.99,,,0.00,Acu-Link.com,2013-02-10 09:50:00,
2013-02-10 03:05:00,12.4,11.9,29.35,NNW,337,0.0,-999.0,98,-99.99,,,0.00,Acu-Link.com,2013-02-10 10:05:00,
2013-02-10 03:20:00,12.9,12.4,29.34,WSW,247,0.0,-999.0,98,-99.99,,,0.00,Acu-Link.com,2013-02-10 10:20:00,
2013-02-10 03:35:00,12.7,12.2,29.34,SW,225,0.0,-999.0,98,-99.99,,,0.00,Acu-Link.com,2013-02-10 10:35:00,
2013-02-10 03:51:00,12.6,12.1,29.34,West,270,0.0,-999.0,98,-99.99,,,0.00,Acu-Link.com,2013-02-10 10:51:00,
2013-02-10 04:06:00,12.9,12.4,29.34,SSW,202,0.0,-999.0,98,-99.99,,,0.00,Acu-Link.com,2013-02-10 11:06:00,
2013-02-10 04:21:00,12.7,12.2,29.35,North,0,0.0,-999.0,98,-99.99,,,0.00,Acu-Link.com,2013-02-10 11:21:00,
2013-02-10 04:37:00,13.1,12.6,29.36,North,0,0.0,-999.0,98,-99.99,,,0.00,Acu-Link.com,2013-02-10 11:37:00,
2013-02-10 04:52:00,13.3,12.8,29.38,NNW,337,0.0,-999.0,98,-99.99,,,0.00,Acu-Link.com,2013-02-10 11:52:00,
2013-02-10 05:07:00,13.3,12.8,29.36,NNW,337,0.0,-999.0,98,-99.99,,,0.00,Acu-Link.com,2013-02-10 12:07:00,
2013-02-10 05:23:00,13.5,13.0,29.37,SSW,202,0.0,-999.0,98,-99.99,,,0.00,Acu-Link.com,2013-02-10 12:23:00,
2013-02-10 05:38:00,13.5,13.0,29.37,WSW,247,1.7,-999.0,98,-99.99,,,0.00,Acu-Link.com,2013-02-10 12:38:00,
2013-02-10 05:53:00,13.1,12.6,29.37,NNW,337,1.1,-999.0,98,-99.99,,,0.00,Acu-Link.com,2013-02-10 12:53:00,
2013-02-10 06:09:00,11.5,11.0,29.38,NNW,337,2.2,-999.0,98,-99.99,,,0.00,Acu-Link.com,2013-02-10 13:09:00,
2013-02-10 06:24:00,9.3,7.7,29.38,North,0,3.7,-999.0,93,-99.99,,,0.00,Acu-Link.com,2013-02-10 13:24:00,
2013-02-10 06:39:00,7.9,4.6,29.40,NNW,337,3.7,-999.0,86,-99.99,,,0.00,Acu-Link.com,2013-02-10 13:39:00,
2013-02-10 06:54:00,6.8,3.5,29.39,NNW,337,3.7,-999.0,86,-99.99,,,0.00,Acu-Link.com,2013-02-10 13:54:00,
2013-02-10 07:10:00,4.8,1.6,29.40,SW,225,1.7,-999.0,86,-99.99,,,0.00,Acu-Link.com,2013-02-10 14:10:00,
2013-02-10 07:25:00,4.3,0.8,29.41,NNW,337,2.2,-999.0,85,-99.99,,,0.00,Acu-Link.com,2013-02-10 14:25:00,
2013-02-10 07:40:00,7.7,1.7,29.42,SSW,202,1.7,-999.0,76,-99.99,,,0.00,Acu-Link.com,2013-02-10 14:40:00,
2013-02-10 07:56:00,12.9,4.4,29.42,NW,315,1.1,-999.0,68,-99.99,,,0.00,Acu-Link.com,2013-02-10 14:56:00,
2013-02-10 08:11:00,17.8,6.3,29.43,SW,225,1.7,-999.0,60,-99.99,,,0.00,Acu-Link.com,2013-02-10 15:11:00,
2013-02-10 08:26:00,16.5,2.8,29.43,SSW,202,4.2,-999.0,54,-99.99,,,0.00,Acu-Link.com,2013-02-10 15:26:00,
2013-02-10 08:42:00,22.6,7.2,29.44,SW,225,1.7,-999.0,51,-99.99,,,0.00,Acu-Link.com,2013-02-10 15:42:00,
2013-02-10 08:57:00,24.6,8.2,29.45,ENE,67,1.7,-999.0,49,-99.99,,,0.00,Acu-Link.com,2013-02-10 15:57:00,
2013-02-10 09:12:00,20.3,5.5,29.44,South,180,2.7,-999.0,52,-99.99,,,0.00,Acu-Link.com,2013-02-10 16:12:00,
2013-02-10 09:27:00,18.5,5.8,29.44,South,180,1.7,-999.0,57,-99.99,,,0.00,Acu-Link.com,2013-02-10 16:27:00,
2013-02-10 09:42:00,19.2,4.9,29.45,South,180,2.2,-999.0,53,-99.99,,,0.00,Acu-Link.com,2013-02-10 16:42:00,
2013-02-10 09:58:00,18.3,6.0,29.45,SSE,157,2.7,-999.0,58,-99.99,,,0.00,Acu-Link.com,2013-02-10 16:58:00,
2013-02-10 10:13:00,21.6,8.0,29.45,SSE,157,2.7,-999.0,55,-99.99,,,0.00,Acu-Link.com,2013-02-10 17:13:00,
2013-02-10 10:28:00,20.8,7.6,29.46,SE,135,2.7,-999.0,56,-99.99,,,0.00,Acu-Link.com,2013-02-10 17:28:00,
2013-02-10 10:44:00,20.8,8.8,29.46,East,90,3.2,-999.0,59,-99.99,,,0.01,Acu-Link.com,2013-02-10 17:44:00,
2013-02-10 10:59:00,23.4,10.8,29.46,East,90,5.3,-999.0,58,-99.99,,,0.01,Acu-Link.com,2013-02-10 17:59:00,
2013-02-10 11:14:00,22.6,10.8,29.46,East,90,3.2,-999.0,60,-99.99,,,0.01,Acu-Link.com,2013-02-10 18:14:00,
2013-02-10 11:29:00,24.8,13.7,29.46,East,90,3.2,-999.0,62,-99.99,,,0.01,Acu-Link.com,2013-02-10 18:29:00,
2013-02-10 11:45:00,26.1,13.8,29.45,East,90,5.3,-999.0,59,-99.99,,,0.01,Acu-Link.com,2013-02-10 18:45:00,
2013-02-10 12:00:00,26.8,14.4,29.44,ENE,67,4.7,-999.0,59,-99.99,,,0.01,Acu-Link.com,2013-02-10 19:00:00,
2013-02-10 12:15:00,27.1,14.7,29.43,ENE,67,4.2,-999.0,59,-99.99,,,0.01,Acu-Link.com,2013-02-10 19:15:00,
2013-02-10 12:31:00,27.3,14.9,29.44,East,90,5.3,-999.0,59,-99.99,,,0.01,Acu-Link.com,2013-02-10 19:31:00,
2013-02-10 12:46:00,27.9,14.3,29.42,East,90,4.7,-999.0,56,-99.99,,,0.01,Acu-Link.com,2013-02-10 19:46:00,
2013-02-10 13:01:00,27.9,14.3,29.43,East,90,3.2,-999.0,56,-99.99,,,0.01,Acu-Link.com,2013-02-10 20:01:00,
2013-02-10 13:16:00,28.0,14.4,29.41,ESE,112,3.2,-999.0,56,-99.99,,,0.01,Acu-Link.com,2013-02-10 20:16:00,
2013-02-10 13:32:00,28.2,14.1,29.40,East,90,4.2,-999.0,55,-99.99,,,0.01,Acu-Link.com,2013-02-10 20:32:00,
2013-02-10 13:47:00,28.4,13.9,29.42,ESE,112,3.2,-999.0,54,-99.99,,,0.01,Acu-Link.com,2013-02-10 20:47:00,
2013-02-10 14:03:00,27.5,13.5,29.40,East,90,3.7,-999.0,55,-99.99,,,0.01,Acu-Link.com,2013-02-10 21:03:00,
2013-02-10 14:18:00,26.8,12.8,29.41,ESE,112,4.2,-999.0,55,-99.99,,,0.01,Acu-Link.com,2013-02-10 21:18:00,
2013-02-10 14:33:00,27.0,12.6,29.40,NE,45,2.7,-999.0,54,-99.99,,,0.01,Acu-Link.com,2013-02-10 21:33:00,
2013-02-10 14:49:00,25.5,12.8,29.41,East,90,3.7,-999.0,58,-99.99,,,0.01,Acu-Link.com,2013-02-10 21:49:00,
2013-02-10 15:04:00,25.0,13.8,29.40,NE,45,4.7,-999.0,62,-99.99,,,0.01,Acu-Link.com,2013-02-10 22:04:00,
2013-02-10 15:19:00,24.3,13.5,29.41,NNE,22,5.3,-999.0,63,-99.99,,,0.01,Acu-Link.com,2013-02-10 22:19:00,
2013-02-10 15:35:00,24.3,14.6,29.41,NNE,22,4.2,-999.0,66,-99.99,,,0.01,Acu-Link.com,2013-02-10 22:35:00,
2013-02-10 15:50:00,23.9,14.6,29.42,NNW,337,4.2,-999.0,67,-99.99,,,0.01,Acu-Link.com,2013-02-10 22:50:00,
2013-02-10 16:05:00,23.5,14.5,29.41,NE,45,2.7,-999.0,68,-99.99,,,0.01,Acu-Link.com,2013-02-10 23:05:00,
2013-02-10 16:20:00,24.3,13.9,29.42,NNW,337,2.7,-999.0,64,-99.99,,,0.01,Acu-Link.com,2013-02-10 23:20:00,
2013-02-10 16:35:00,25.0,14.6,29.43,NE,45,2.7,-999.0,64,-99.99,,,0.01,Acu-Link.com,2013-02-10 23:35:00,
2013-02-10 16:51:00,23.0,14.0,29.43,ESE,112,2.2,-999.0,68,-99.99,,,0.01,Acu-Link.com,2013-02-10 23:51:00,
2013-02-10 17:06:00,21.9,14.0,29.44,NNE,22,2.7,-999.0,71,-99.99,,,0.01,Acu-Link.com,2013-02-11 00:06:00,
2013-02-10 17:21:00,20.7,14.1,29.44,NE,45,0.0,-999.0,75,-99.99,,,0.01,Acu-Link.com,2013-02-11 00:21:00,
2013-02-10 17:37:00,20.1,14.1,29.45,NE,45,0.0,-999.0,77,-99.99,,,0.01,Acu-Link.com,2013-02-11 00:37:00,
2013-02-10 17:52:00,19.4,14.5,29.46,ENE,67,2.7,-999.0,81,-99.99,,,0.01,Acu-Link.com,2013-02-11 00:52:00,
2013-02-10 18:07:00,19.2,13.5,29.47,NNE,22,2.7,-999.0,78,-99.99,,,0.01,Acu-Link.com,2013-02-11 01:07:00,
2013-02-10 18:22:00,18.9,14.3,29.47,NNE,22,1.1,-999.0,82,-99.99,,,0.01,Acu-Link.com,2013-02-11 01:22:00,
2013-02-10 18:38:00,18.7,14.1,29.49,NE,45,3.2,-999.0,82,-99.99,,,0.01,Acu-Link.com,2013-02-11 01:38:00,
2013-02-10 18:53:00,18.9,14.9,29.48,NNE,22,0.0,-999.0,84,-99.99,,,0.01,Acu-Link.com,2013-02-11 01:53:00,
2013-02-10 19:08:00,18.9,16.2,29.49,SE,135,0.0,-999.0,89,-99.99,,,0.01,Acu-Link.com,2013-02-11 02:08:00,
2013-02-10 19:24:00,18.7,18.2,29.49,NNE,22,0.0,-999.0,98,-99.99,,,0.01,Acu-Link.com,2013-02-11 02:24:00,
2013-02-10 19:39:00,18.0,17.5,29.49,ESE,112,1.7,-999.0,98,-99.99,,,0.01,Acu-Link.com,2013-02-11 02:39:00,
2013-02-10 19:54:00,17.2,16.3,29.49,West,270,0.0,-999.0,96,-99.99,,,0.01,Acu-Link.com,2013-02-11 02:54:00,
2013-02-10 20:10:00,17.2,16.7,29.49,SW,225,0.0,-999.0,98,-99.99,,,0.01,Acu-Link.com,2013-02-11 03:10:00,
2013-02-10 20:25:00,17.6,17.1,29.50,South,180,0.0,-999.0,98,-99.99,,,0.01,Acu-Link.com,2013-02-11 03:25:00,
2013-02-10 20:40:00,17.6,17.1,29.50,SSW,202,0.0,-999.0,98,-99.99,,,0.01,Acu-Link.com,2013-02-11 03:40:00,
2013-02-10 20:55:00,17.8,17.3,29.50,NNW,337,0.0,-999.0,98,-99.99,,,0.01,Acu-Link.com,2013-02-11 03:55:00,
2013-02-10 21:10:00,17.6,17.1,29.50,NNE,22,3.2,-999.0,98,-99.99,,,0.01,Acu-Link.com,2013-02-11 04:10:00,
2013-02-10 21:26:00,17.1,16.6,29.51,ESE,112,2.7,-999.0,98,-99.99,,,0.01,Acu-Link.com,2013-02-11 04:26:00,
2013-02-10 21:41:00,16.3,15.8,29.52,ENE,67,0.0,-999.0,98,-99.99,,,0.01,Acu-Link.com,2013-02-11 04:41:00,
2013-02-10 21:56:00,15.6,15.1,29.51,NE,45,2.2,-999.0,98,-99.99,,,0.01,Acu-Link.com,2013-02-11 04:56:00,
2013-02-10 22:11:00,14.0,13.5,29.52,NNE,22,0.0,-999.0,98,-99.99,,,0.01,Acu-Link.com,2013-02-11 05:11:00,
2013-02-10 22:27:00,12.9,12.4,29.52,NW,315,0.0,-999.0,98,-99.99,,,0.01,Acu-Link.com,2013-02-11 05:27:00,
2013-02-10 22:42:00,11.8,11.3,29.52,WNW,292,0.0,-999.0,98,-99.99,,,0.01,Acu-Link.com,2013-02-11 05:42:00,
2013-02-10 22:58:00,9.1,8.7,29.52,NE,45,0.0,-999.0,98,-99.99,,,0.01,Acu-Link.com,2013-02-11 05:58:00,
2013-02-10 23:13:00,9.7,9.3,29.53,ESE,112,1.1,-999.0,98,-99.99,,,0.01,Acu-Link.com,2013-02-11 06:13:00,
2013-02-10 23:28:00,8.6,8.2,29.52,ENE,67,0.0,-999.0,98,-99.99,,,0.01,Acu-Link.com,2013-02-11 06:28:00,
2013-02-10 23:43:00,9.9,9.5,29.52,NE,45,4.2,-999.0,98,-99.99,,,0.01,Acu-Link.com,2013-02-11 06:43:00,
2013-02-10 23:58:00,10.0,9.6,29.53,ENE,67,6.3,-999.0,98,-99.99,,,0.01,Acu-Link.com,2013-02-11 06:58:00,